Location: Haliburton Scout Reserve
(45.0900°N, 78.3200°W)
Time: 21:10:41
(UTC-04:00)

IDEFIX/ARIANE 42P - Visible Passes

Search period start: 22 May 2015 00:00
Search period end: 01 June 2015 00:00
Orbit: 786 x 802 km, 98.3° (Epoch: 22 May)

Date Brightness Start Highest point End Pass type
(mag) Time Alt. Az. Time Alt. Az. Time Alt. Az.
22 May 5.6 21:59:01 10° W 21:59:56 10° W 22:00:29 10° WNW visible
23 May 5.1 21:27:26 10° SW 21:31:11 19° W 21:34:48 10° NW visible
26 May 5.3 21:43:29 10° WSW 21:46:17 14° W 21:48:50 10° WNW visible
30 May 5.1 21:29:01 10° SW 21:32:41 18° W 21:36:10 10° NW visible
